Regional Weather Roundup
Issued by NWS Grand Forks, ND

Home | Current Version | Previous Version | Text Only | Print | Product List | Glossary Off
Versions: 1 2 3 4 5 6 7 8 9 10 11 12 13 14 15 16 17 18 19 20 21 22 23 24 25 26 27 28 29 30 31 32 33 34 35 36 37 38 39 40 41 42 43 44 45 46 47 48 49 50

000
ASUS43 KFGF 232231
RWRFGF
PRAIRIE TO PINES  WEATHER ROUNDUP
NATIONAL WEATHER SERVICE EASTERN NORTH DAKOTA/GRAND FORKS ND
500 PM CDT SUN JUL 23 2017

 **SATELLITE DATA USED TO AUGMENT SKY COVER AT AUTOMATED STATIONS**
 *****  WEATHER ACROSS EASTERN NORTH DAKOTA  *****

CITY           SKY/WX    TMP DP  RH WIND       PRES   REMARKS
GRAND FORKS    FAIR      79  62  56 NE5       29.98F
GRAND FRKS AFB FAIR      77  61  56 CALM      29.99F
DEVILS LAKE    FAIR      77  58  51 VRB5      30.01F
FARGO          FAIR      77  62  59 NE5       29.99F
WAHPETON ARPT  MOCLDY    72  57  60 N3        30.00F
$$

 ***** WEATHER ACROSS CENTRAL AND WESTERN NORTH DAKOTA  *****

CITY           SKY/WX    TMP DP  RH WIND       PRES   REMARKS
BISMARCK       FAIR      84  55  36 S5        29.99F
MINOT          FAIR      85  50  29 SE3       29.96F
JAMESTOWN      FAIR      79  58  48 VRB3      30.00F
MINOT AFB      FAIR      83  52  34 SE6       29.95F
GARRISON         N/A     82  54  37 S3        29.98F
WILLISTON      FAIR      93  49  22 VRB5      29.92F HX  90
DICKINSON      FAIR      89  49  25 E3        29.97F
HETTINGER      FAIR      89  47  23 VRB3      30.00F
$$

 *****  OTHER AIRPORT OBSERVATIONS IN OUR AREA  *****

CITY           SKY/WX    TMP DP  RH WIND       PRES   REMARKS
WALHALLA       NOT AVBL
GRAFTON AIRPOR FAIR      79  61  53 E3        29.99F
VALLEY CITY AR FAIR      75  59  57 CALM      30.02S
CANDO          NOT AVBL
CAVALIER APRT  FAIR      77  61  57 E3        29.98F
GWINNER        PTCLDY    77  61  57 NE7       30.00F
SHEYENNE NWR     N/A     76  61  59 N5        29.95S
ROLLA            N/A     75  59  57 VRB5      30.01F
 ***** THE ABOVE OBSERVATIONS ARE NON NWS ARE NOT QUALITY
       CONTROLLED AND MAY MIS-REPORT RAIN FOR SNOW...
$$

  *****  WEATHER ACROSS NORTHERN MINNESOTA  *****

CITY           SKY/WX    TMP DP  RH WIND       PRES   REMARKS
FLAG ISLAND    FAIR      77  55  47 S3        29.99S
WARROAD        FAIR      75  63  64 NE6       30.01S
ROSEAU         FAIR      79  63  57 CALM      29.99S
HALLOCK        FAIR      79  61  53 CALM      29.97F
THF RVR FALLS  FAIR      76  58  53 VRB3      30.01F
BAUDETTE       FAIR      79  59  50 N7        29.99S
WASKISH        CLOUDY    79  57  47 W6        29.99S
CROOKSTON      FAIR      79  63  57 W5        29.99S
STEPHEN NDAWN    N/A     79  61  53 W3          N/A
GREENBUSH NDAW   N/A     79  59  50 E3          N/A
$$
  *****  WEATHER ACROSS CENTRAL AND WEST MINNESOTA  *****

CITY           SKY/WX    TMP DP  RH WIND       PRES   REMARKS
FOSSTON        FAIR      77  63  61 NE6       30.01F
BEMIDJI        FAIR      72  57  60 CALM      30.02S
PARK RAPIDS    PTSUNNY   75  57  53 N6        30.01S
ELBOW LAKE     MOCLDY    73  61  67 NE5       30.00F
WADENA         FAIR      75  61  60 N3        30.00S
DETROIT LAKES  FAIR      73  61  64 N3        30.02S
MOORHEAD       FAIR      75  61  60 CALM      30.00S
FERGUS FALLS   PTSUNNY   73  59  60 NE7       29.99F
MORRIS MN      FAIR      77  57  50 N8        29.99S
STAPLES        FAIR      73  54  49 NE7       30.00S
$$
  *****  WEATHER ELSEWHERE ACROSS MINNESOTA  *****

CITY           SKY/WX    TMP DP  RH WIND       PRES   REMARKS
DULUTH         PTSUNNY   64  60  87 CALM      30.02R
INTRNTL FALLS  FAIR      78  52  40 CALM      29.99S
ELY            FAIR      73  48  40 CALM      30.00S
CLOQUET        CLOUDY    64  55  72 E3        30.02S
WHEATON        FAIR      73  57  56 N6        30.02S
BRAINERD       FAIR      72  60  66 NE9       30.00S
HIBBING        FAIR      71  56  58 CALM      30.00F
ALEXANDRIA     FAIR      75  60  59 N8        30.01F
SAINT CLOUD    FAIR      75  60  59 NE8       29.97S
MINNEAPOLIS    PTSUNNY   78  59  51 NE13G26   29.94S
$$

  *****  WEATHER ACROSS SOUTH DAKOTA  *****

CITY           SKY/WX    TMP DP  RH WIND       PRES   REMARKS
SIOUX FALLS    FAIR      81  61  50 N12       29.99S
BROOKINGS      PTSUNNY   75  61  61 NE8       30.01S
WATERTOWN      PTSUNNY   76  60  57 NE9G18    30.01S
HURON          FAIR      80  59  48 N12G20    30.00S
SISSETON         N/A     77  61  57 N9        30.00F
ABERDEEN       FAIR      79  60  52 N10       30.00F
MITCHELL       FAIR      82  58  43 N10       30.00F
PIERRE         FAIR      88  46  23 VRB6      29.97F
MOBRIDGE       FAIR      83  58  42 VRB7      29.98F
RAPID CITY     FAIR      92  46  20 SE13G20   30.01F
$$

  *****  SOME WEATHER IN NEARBY STATES *****

CITY           SKY/WX    TMP DP  RH WIND       PRES   REMARKS
GLASGOW MT     FAIR      97  39  13 SE15      29.83F HX  92
GREAT FALLS MT FAIR      94  37  13 VRB6      29.88F
CHEYENNE WY    FAIR      84  43  23 S10G21    30.20F
SCOTTSBLUFF NE FAIR      96  46  18 E12       30.03F HX  92
OMAHA NE       FAIR      89  60  37 N12       29.94S
DES MOINES IA  FAIR      86  59  39 NW14G25   29.90S
DAVENPORT IA   FAIR      83  66  56 NW15G23   29.85S
CHICAGO IL     LGT RAIN  70  64  81 W12       29.80R
EAU CLAIRE WI  PTSUNNY   71  59  65 N12G21    29.92S
LA CROSSE WI   CLOUDY    81  63  54 NW20      29.87R
$$

  *****  SOME NATIONAL WEATHER *****

CITY           SKY/WX    TMP DP  RH WIND       PRES   REMARKS
LA GUARDIA NY  PTSUNNY   79  68  69 E12       29.82R
RALEIGH NC     TSTM      81  74  79 W15G32    29.82R VSB 1
ATLANTA GA     PTSUNNY   90  72  55 W10       29.89F HX  97
NEW ORLEANS LA PTSUNNY   83  71  67 W10       29.96F
OKLAHOMA CITY  PTSUNNY   92  63  38 E12       29.83F HX  93
ALBUQUERQUE NM PTSUNNY   86  51  29 SW6       30.11F
SALT LAKE CITY PTSUNNY   97  46  17 W16       30.00F HX  93
LOS ANGELES CA FAIR      75  65  70 W14       29.85F
BOISE ID       FAIR      95  42  16 CALM      29.92F HX  91
SEATTLE WA     PTSUNNY   75  57  53 NW12      30.06F
$$

*** WEATHER ACROSS MANITOBA...SASKATCHEWAN AND ONTARIO ***
                ***ONTARIO***

CITY           SKY/WX    TMP DP  RH WIND       PRES   REMARKS
GERALDTON      MOSUNNY   75  48  38 NE6       29.97S
THUNDER BAY    MOSUNNY   73  46  38 SE6       29.98S
SIOUX LOOKOUT  PTSUNNY   77  52  41 SW6       29.98S
TORONTO        PTSUNNY   73  63  68 E12G22    29.76S
BIG TROUT LK   MOSUNNY   77  43  29 VRB2      29.92F
PICKLE LAKE    PTSUNNY   79  41  25 N5        29.95F
DRYDEN         SUNNY     77  48  36 W8        29.99S
KENORA         MOSUNNY   75  54  46 NW6       30.00F
$$
                *** MANITOBA***

CITY           SKY/WX    TMP DP  RH WIND       PRES   REMARKS
BRANDON        MOSUNNY   77  63  61 SW8       29.97F
DAUPHIN        SUNNY     79  61  53 SW6       29.92F
ISLAND LAKE    PTSUNNY   82  45  26 SW5       29.86F
PILOT MOUND      N/A     75  57  53 S7          N/A
THE PAS        MOSUNNY   81  55  41 W9        29.81F
THOMPSON       LGT RAIN  77  52  41 SW9       29.78F
WINNIPEG       MOSUNNY   77  63  61 S8        29.96F
LYNN LAKE      MOSUNNY   68  61  77 SE6       29.76F
CHURCHILL      CLOUDY    77  54  44 SW15      29.67F
GILLAM         CLOUDY    79  46  31 SW10G22   29.79F
$$
                ***SASKATCHEWAN***

CITY           SKY/WX    TMP DP  RH WIND       PRES   REMARKS
ESTEVAN        MOSUNNY   84  54  34 S2        29.93F
KINDERSLEY     PTSUNNY   84  52  32 S8        29.80F
LLOYDMINSTER   PTSUNNY   79  55  44 N7        29.83F
PRINCE ALBERT  MOSUNNY   79  61  53 S5        29.83F
REGINA         MOSUNNY   90  52  27 SE10G20   29.84F
YORKTON        SUNNY     82  57  42 S10       29.91F
N. BATTLEFORD  SUNNY     82  61  47 E5        29.83F
LA RONGE       MOSUNNY   82  55  39 S10G18    29.77F
SASKATOON      MOSUNNY   86  55  35 S5        29.81F
SWIFT CURRENT  SUNNY     91  48  22 W13G21    29.83F
$$
NOTE: THESE ARE AUTOMATED STATIONS WITH LIMITED QUALITY CONTROL
      "FAIR" INDICATES FEW OR NO CLOUDS BELOW 12,000 FEET WITH NO
      SIGNIFICANT WEATHER AND/OR OBSTRUCTIONS TO VISIBILITY.
      SKY/WX - SKY CONDITION AND SIGNIFICANT WEATHER.
      TMP - AIR TEMPERATURE.    DP   - DEWPOINT TEMPERATURE.
      RH  - RELATIVE HUMIDITY.  PRES - PRESSURE.
      HX  - HEAT INDEX.         WCI  - WIND CHILL INDEX.
$



USA.gov is the U.S. government's official web portal to all federal, state and local government web resources and services.